M0JGD Weather Reports


Display with metric or nautical units.
time (UTC)temp
F
wind
direction
speed
MPH
gust
MPH
rain 1hr
in
rain 24hr
in
rain mn
in
humidity
%
barometer
mb
20260507214617 46 0 0.0 0.0 0.00 0.00 0.00 84 1014.4
20260507213106 46 0 0.0 0.0 0.00 0.00 0.00 83 1014.5
20260507211612 46 0 0.0 0.0 0.00 0.00 0.00 79 1014.5
20260507210056 47 0 0.0 0.0 0.00 0.00 0.00 79 1014.4
20260507204602 48 0 0.0 0.0 0.00 0.00 0.00 78 1014.3
20260507203101 48 0 0.0 0.0 0.00 0.00 0.00 78 1014.2
20260507201555 48 0 0.0 0.0 0.00 0.00 0.00 76 1014.1
20260507200054 49 0 0.0 0.0 0.00 0.00 0.00 73 1013.7
20260507194626 51 0 0.0 0.0 0.00 0.00 0.00 70 1013.5
20260507193056 52 0 0.0 0.0 0.00 0.00 0.00 69 1013.4
20260507191554 53 0 0.0 0.0 0.00 0.00 0.00 68 1013.3
20260507190054 54 0 0.0 0.0 0.00 0.00 0.00 67 1013.4
20260507184605 55 0 0.0 0.0 0.00 0.00 0.00 69 1013.4
20260507183058 56 0 0.0 0.0 0.00 0.00 0.00 67 1013.4
20260507181552 56 0 0.0 0.0 0.00 0.00 0.00 66 1013.4
20260507180100 55 0 0.0 0.0 0.00 0.00 0.00 65 1013.3
20260507174556 55 0 0.0 0.0 0.00 0.00 0.00 63 1013.3
20260507173053 55 0 0.0 0.0 0.00 0.00 0.00 62 1013.4
20260507171553 55 0 0.0 0.0 0.00 0.00 0.00 62 1013.4
20260507170054 56 0 0.0 2.0 0.00 0.00 0.00 63 1013.4
20260507164607 57 207 0.0 2.0 0.00 0.00 0.00 62 1013.2
20260507163103 57 0 1.0 4.0 0.00 0.00 0.00 60 1013.2
20260507161603 57 207 1.0 3.0 0.00 0.00 0.00 61 1013.4
20260507160055 57 210 0.0 3.0 0.00 0.00 0.00 63 1013.4
20260507154559 57 210 0.0 4.0 0.00 0.00 0.00 63 1013.4
20260507153052 56 178 1.0 5.0 0.00 0.00 0.00 63 1013.5
20260507151554 58 184 0.0 5.0 0.00 0.00 0.00 62 1013.5
20260507150057 60 213 2.0 4.0 0.00 0.00 0.00 58 1013.4
20260507144559 61 0 1.0 5.0 0.00 0.00 0.00 57 1013.4
20260507143102 60 201 1.0 4.0 0.00 0.00 0.00 59 1013.5
20260507141554 62 190 0.0 3.0 0.00 0.00 0.00 57 1013.6
20260507140054 61 204 0.0 3.0 0.00 0.00 0.00 59 1013.6
20260507134557 58 0 0.0 3.0 0.00 0.00 0.00 63 1013.5
20260507133057 57 0 1.0 3.0 0.00 0.00 0.00 62 1013.6
20260507131611 57 0 0.0 0.0 0.00 0.00 0.00 63 1013.7
20260507130057 57 0 0.0 2.0 0.00 0.00 0.00 63 1013.6
20260507124606 57 0 0.0 2.0 0.00 0.00 0.00 61 1013.8
20260507123056 57 0 0.0 0.0 0.00 0.00 0.00 61 1013.8
20260507121557 58 0 0.0 2.0 0.00 0.00 0.00 60 1013.8
20260507120056 60 0 0.0 2.0 0.00 0.00 0.00 57 1013.9
20260507114558 61 0 0.0 2.0 0.00 0.00 0.00 54 1013.7
20260507113100 63 0 0.0 3.0 0.00 0.00 0.00 51 1013.8
20260507111557 62 0 0.0 2.0 0.00 0.00 0.00 53 1013.7
20260507110057 62 0 0.0 3.0 0.00 0.00 0.00 53 1013.9
20260507104553 60 0 0.0 2.0 0.00 0.00 0.00 56 1014.0
20260507103054 59 194 0.0 4.0 0.00 0.00 0.00 60 1014.0
20260507101556 60 0 0.0 3.0 0.00 0.00 0.00 56 1013.9
20260507100056 59 0 0.0 3.0 0.00 0.00 0.00 54 1014.1
20260507094554 60 0 0.0 5.0 0.00 0.00 0.00 56 1014.1
20260507093056 59 0 0.0 3.0 0.00 0.00 0.00 58 1014.0
20260507091551 57 0 0.0 2.0 0.00 0.00 0.00 68 1013.8
20260507090054 54 0 0.0 2.0 0.00 0.00 0.00 76 1014.0
20260507084553 52 0 0.0 0.0 0.00 0.00 0.00 77 1014.1
20260507083053 51 0 0.0 0.0 0.00 0.00 0.00 82 1013.9
20260507081553 50 0 0.0 2.0 0.00 0.00 0.00 86 1013.8
20260507080113 49 0 0.0 0.0 0.00 0.00 0.00 88 1013.9
20260507074552 48 0 0.0 2.0 0.00 0.00 0.00 90 1013.8
20260507073112 47 0 0.0 1.0 0.00 0.00 0.00 92 1013.8
20260507071609 45 0 0.0 0.0 0.00 0.00 0.00 92 1013.8
20260507070056 43 0 0.0 0.0 0.00 0.00 0.00 92 1013.6
20260507064554 42 0 0.0 0.0 0.00 0.00 0.00 91 1013.5
20260507063057 42 0 0.0 0.0 0.00 0.00 0.00 91 1013.5
20260507061559 41 0 0.0 0.0 0.00 0.00 0.00 91 1013.5
20260507060054 41 0 0.0 0.0 0.00 0.00 0.00 91 1013.5
20260507054552 40 0 0.0 0.0 0.00 0.00 0.00 90 1013.4
20260507053121 40 0 0.0 0.0 0.00 0.00 0.00 90 1013.3
20260507051601 40 0 0.0 0.0 0.00 0.00 0.00 89 1013.2
20260507050108 40 0 0.0 0.0 0.00 0.00 0.00 89 1013.1
20260507044559 40 0 0.0 0.0 0.00 0.00 0.00 89 1013.3
20260507043057 41 0 0.0 0.0 0.00 0.00 0.00 89 1013.1
20260507041555 40 0 0.0 0.0 0.00 0.00 0.00 88 1013.0
20260507034556 41 0 0.0 0.0 0.00 0.00 0.00 88 1013.1
20260507033055 42 0 0.0 1.0 0.00 0.00 0.00 88 1013.0
20260507031556 42 0 0.0 0.0 0.00 0.00 0.00 87 1012.9
20260507030057 42 0 0.0 0.0 0.00 0.00 0.00 87 1012.9
20260507024604 43 0 0.0 0.0 0.00 0.00 0.00 86 1012.9
20260507023056 43 0 0.0 0.0 0.00 0.00 0.00 86 1013.0
20260507021557 43 0 0.0 0.0 0.00 0.00 0.00 86 1012.8
20260507020109 44 0 0.0 0.0 0.00 0.00 0.00 85 1012.6
20260507014612 45 0 0.0 0.0 0.00 0.00 0.00 84 1012.5
20260507013056 45 0 0.0 0.0 0.00 0.00 0.00 84 1012.5
20260507011610 46 0 0.0 0.0 0.00 0.00 0.00 84 1012.6
20260507010113 47 0 0.0 0.0 0.00 0.00 0.00 84 1012.6
20260507004615 47 0 0.0 0.0 0.00 0.00 0.00 82 1012.7
20260507003102 47 0 0.0 0.0 0.00 0.00 0.00 81 1012.5
20260507001604 48 0 0.0 0.0 0.00 0.00 0.00 80 1012.8
20260507000056 48 0 0.0 0.0 0.00 0.00 0.00 79 1012.7
20260506234557 48 0 0.0 0.0 0.00 0.00 0.00 78 1012.7
20260506233058 49 0 0.0 0.0 0.00 0.00 0.00 77 1012.6
20260506231553 49 0 0.0 0.0 0.00 0.00 0.00 76 1012.6
20260506230104 49 0 0.0 0.0 0.00 0.00 0.00 76 1012.5
20260506224552 49 0 0.0 0.0 0.00 0.00 0.00 76 1012.7
20260506223053 50 0 0.0 0.0 0.00 0.00 0.00 76 1012.7
20260506221557 50 0 0.0 0.0 0.00 0.00 0.00 75 1012.4
20260506220057 50 0 0.0 0.0 0.00 0.00 0.00 74 1012.4